Project,Study,Ord_Occ,Event_Num,Cast_ID,Date_Time_UTC,Date_Time_PST,Lat_Dec,Lon_Dec,Sta_ID,Line,Sta,Depth,Pressure,PrQ,Temp1,Temp1Q,Temp2,Temp2Q,TempAve,Salt1,Salt1Q,Salt1_Corr,Salt2,Salt2Q,Salt2_Corr,SaltAve_Corr,Ox1,Ox1Q,Ox1_CruiseCorr,Ox1_StaCorr,Ox2,Ox2Q,Ox2_CruiseCorr,Ox2_StaCorr,OxAve_StaCorr,Ox1uM,Ox1uM_CruiseCorr,Ox1uM_StaCorr,Ox2uM,Ox2uM_CruiseCorr,Ox2uM_StaCorr,OxAveuM_StaCorr,FluorV,FluorQ,EstChl_CruiseCorr,EstChl_StaCorr,ISUSV,ISUSQ,EstNO3_CruiseCorr,EstNO3_StaCorr,SigThetaTS1,SigThetaTS1Q,SigThetaTS2,SigThetaTS2Q,BAT,XMiss,TransQ,pH,pHQ,SPAR,SPARQ,PAR,PARQ,PoT1,PoT2,DynHt,SVA,OxSat1,OxSat2,BTL_Depth,BTL_Temp,SaltB,OxB,OxBuM,Chl-a,Phaeo,NO3,NO2,NH4,PO4,SIL
CalCOFI,2101RL,004,,2101_004u,16-Jan-2021 14:26:53,16-Jan-2021 06:26:53,32.91138,-117.39141,093.3 028.0,093.3,028.0,519.000,523.343,,6.5055,,6.5081,,6.5068,34.2860,,34.2918,34.2777,,34.2797,34.2858,0.3696,,0.3867,0.4046,0.3728,,0.3940,0.4109,0.4078,16.072,17.0844,17.6872,16.212,18.3247,17.9668,17.8270,0.0308,,,, ,, , ,26.9294,,26.9224,,0.6821,84.3231,,,,3.6947E+00,,3.8999E-02,,6.4579,6.4605,0.9213,119.400,5.387,5.434,,,,,,,,,,,,
CalCOFI,2101RL,004,,2101_004u,16-Jan-2021 14:26:57,16-Jan-2021 06:26:57,32.91138,-117.39142,093.3 028.0,093.3,028.0,518.000,522.333,,6.5108,,6.5117,,6.5113,34.2853,,34.2911,34.2774,,34.2794,34.2853,0.3688,,0.3859,0.4037,0.3771,,0.3985,0.4155,0.4096,16.038,17.0488,17.6517,16.398,18.2869,18.1627,17.9072,0.0324,,,, ,, , ,26.9280,,26.9218,,0.6826,84.3132,,,,3.6947E+00,,4.2273E-02,,6.4633,6.4641,0.9213,119.516,5.376,5.496,,,,,,,,,,,,
CalCOFI,2101RL,004,,2101_004u,16-Jan-2021 14:27:36,16-Jan-2021 06:27:36,32.91134,-117.39137,093.3 028.0,093.3,028.0,517.000,521.323,,6.5140,,6.5146,,6.5143,34.2852,,34.2910,34.2770,,34.2790,34.2850,0.3685,,0.3856,0.4034,0.3754,,0.3967,0.4137,0.4086,16.027,17.0373,17.6402,16.326,18.2747,18.0868,17.8635,0.0319,,,, ,, , ,26.9276,,26.9211,,0.6827,84.3093,,,,3.6947E+00,,6.5534E-02,,6.4665,6.4671,0.9237,119.550,5.373,5.473,,,,,,,,,,,,
CalCOFI,2101RL,004,,2101_004u,16-Jan-2021 14:28:08,16-Jan-2021 06:28:08,32.91130,-117.39133,093.3 028.0,093.3,028.0,516.000,520.313,,6.5125,,6.5139,,6.5132,34.2852,,34.2910,34.2770,,34.2790,34.2850,0.3688,,0.3859,0.4037,0.3744,,0.3957,0.4126,0.4082,16.041,17.0519,17.6548,16.284,18.2903,18.0426,17.8487,0.0322,,,, ,, , ,26.9278,,26.9211,,0.6827,84.3104,,,,3.6947E+00,,7.6235E-02,,6.4651,6.4665,0.9257,119.513,5.377,5.459,516,,34.2815,0.383,16.68,,,,,,,
CalCOFI,2101RL,004,,2101_004u,16-Jan-2021 14:29:00,16-Jan-2021 06:29:00,32.91120,-117.39133,093.3 028.0,093.3,028.0,515.000,519.304,,6.5249,,6.5251,,6.5250,34.2846,,34.2904,34.2767,,34.2787,34.2846,0.3706,,0.3878,0.4056,0.3738,,0.3950,0.4120,0.4088,16.115,17.1294,17.7320,16.257,18.3725,18.0142,17.8731,0.0324,,,, ,, , ,26.9256,,26.9193,,0.6825,84.3139,,,,3.6947E+00,,8.6515E-02,,6.4776,6.4778,0.9294,119.717,5.404,5.451,,,,,,,,,,,,
CalCOFI,2101RL,004,,2101_004u,16-Jan-2021 14:30:05,16-Jan-2021 06:30:05,32.91116,-117.39136,093.3 028.0,093.3,028.0,514.000,518.294,,6.5302,,6.5308,,6.5305,34.2840,,34.2898,34.2764,,34.2784,34.2841,0.3739,,0.3912,0.4090,0.3758,,0.3971,0.4141,0.4116,16.258,17.2791,17.8812,16.342,18.5316,18.1037,17.9925,0.0329,,,, ,, , ,26.9245,,26.9183,,0.6827,84.3108,,,,3.6947E+00,,7.9241E-02,,6.4829,6.4836,0.9360,119.814,5.452,5.480,,,,,,,,,,,,
CalCOFI,2101RL,004,,2101_004u,16-Jan-2021 14:30:05,16-Jan-2021 06:30:05,32.91116,-117.39136,093.3 028.0,093.3,028.0,513.000,517.285,,6.5355,,6.5373,,6.5364,34.2841,,34.2899,34.2763,,34.2783,34.2841,0.3726,,0.3899,0.4077,0.3722,,0.3933,0.4103,0.4090,16.204,17.2225,17.8248,16.185,18.4715,17.9384,17.8816,0.0317,,,, ,, , ,26.9238,,26.9174,,0.6831,84.3015,,,,3.6947E+00,,8.6567E-02,,6.4883,6.4901,0.9359,119.872,5.435,5.428,,,,,,,,,,,,
CalCOFI,2101RL,004,,2101_004u,16-Jan-2021 14:30:06,16-Jan-2021 06:30:06,32.91116,-117.39136,093.3 028.0,093.3,028.0,512.000,516.275,,6.5376,,6.5390,,6.5383,34.2843,,34.2901,34.2762,,34.2782,34.2842,0.3725,,0.3898,0.4076,0.3725,,0.3936,0.4106,0.4091,16.201,17.2194,17.8217,16.199,18.4682,17.9531,17.8874,0.0327,,,, ,, , ,26.9237,,26.9171,,0.6831,84.3014,,,,3.6947E+00,,9.0303E-02,,6.4905,6.4919,0.9359,119.866,5.434,5.433,,,,,,,,,,,,
CalCOFI,2101RL,004,,2101_004u,16-Jan-2021 14:30:08,16-Jan-2021 06:30:08,32.91116,-117.39136,093.3 028.0,093.3,028.0,511.000,515.265,,6.5396,,6.5410,,6.5403,34.2843,,34.2901,34.2762,,34.2782,34.2842,0.3725,,0.3898,0.4076,0.3785,,0.4000,0.4169,0.4123,16.198,17.2163,17.8186,16.459,18.4648,18.2269,18.0228,0.0327,,,, ,, , ,26.9235,,26.9168,,0.6835,84.2921,,,,3.6947E+00,,9.0679E-02,,6.4925,6.4940,0.9359,119.876,5.433,5.521,,,,,,,,,,,,
CalCOFI,2101RL,004,,2101_004u,16-Jan-2021 14:30:09,16-Jan-2021 06:30:09,32.91114,-117.39136,093.3 028.0,093.3,028.0,510.000,514.256,,6.5427,,6.5422,,6.5425,34.2842,,34.2900,34.2761,,34.2781,34.2841,0.3731,,0.3904,0.4082,0.3795,,0.4011,0.4180,0.4131,16.224,17.2435,17.8457,16.505,18.4938,18.2753,18.0605,0.0317,,,, ,, , ,26.9229,,26.9166,,0.6831,84.3011,,,,3.6947E+00,,9.1497E-02,,6.4957,6.4953,0.9359,119.914,5.443,5.536,,,,,,,,,,,,
CalCOFI,2101RL,004,,2101_004u,16-Jan-2021 14:30:11,16-Jan-2021 06:30:11,32.91114,-117.39136,093.3 028.0,093.3,028.0,509.000,513.246,,6.5422,,6.5430,,6.5426,34.2842,,34.2900,34.2759,,34.2779,34.2840,0.3774,,0.3949,0.4127,0.3845,,0.4064,0.4232,0.4180,16.411,17.4392,18.0407,16.722,18.7017,18.5038,18.2723,0.0321,,,, ,, , ,26.9230,,26.9164,,0.6832,84.3003,,,,3.6947E+00,,8.7517E-02,,6.4954,6.4961,0.9359,119.896,5.505,5.609,,,,,,,,,,,,
CalCOFI,2101RL,004,,2101_004u,16-Jan-2021 14:30:12,16-Jan-2021 06:30:12,32.91114,-117.39134,093.3 028.0,093.3,028.0,508.000,512.237,,6.5569,,6.5525,,6.5547,34.2842,,34.2900,34.2761,,34.2781,34.2841,0.3864,,0.4043,0.4221,0.3845,,0.4064,0.4232,0.4227,16.802,17.8485,18.4485,16.723,19.1365,18.5049,18.4767,0.0319,,,, ,, , ,26.9211,,26.9152,,0.6831,84.3014,,,,3.6947E+00,,8.5829E-02,,6.5101,6.5057,0.9359,120.079,5.638,5.611,,,,,,,,,,,,
CalCOFI,2101RL,004,,2101_004u,16-Jan-2021 14:30:13,16-Jan-2021 06:30:13,32.91114,-117.39134,093.3 028.0,093.3,028.0,507.000,511.227,,6.5786,,6.5855,,6.5821,34.2837,,34.2895,34.2753,,34.2773,34.2834,0.3897,,0.4078,0.4255,0.3877,,0.4098,0.4266,0.4261,16.950,18.0035,18.6029,16.860,19.3011,18.6492,18.6261,0.0321,,,, ,, , ,26.9177,,26.9102,,0.6842,84.2778,,,,3.6947E+00,,9.1570E-02,,6.5318,6.5387,0.9359,120.402,5.690,5.661,,,,,,,,,,,,
CalCOFI,2101RL,004,,2101_004u,16-Jan-2021 14:30:14,16-Jan-2021 06:30:14,32.91114,-117.39134,093.3 028.0,093.3,028.0,506.000,510.217,,6.5939,,6.5906,,6.5923,34.2830,,34.2888,34.2754,,34.2774,34.2831,0.3959,,0.4142,0.4320,0.3887,,0.4108,0.4277,0.4299,17.217,18.2830,18.8814,16.906,19.5980,18.6976,18.7895,0.0326,,,, ,, , ,26.9151,,26.9096,,0.6847,84.2682,,,,3.6947E+00,,8.6495E-02,,6.5471,6.5439,0.9359,120.649,5.782,5.677,,,,,,,,,,,,
CalCOFI,2101RL,004,,2101_004u,16-Jan-2021 14:30:15,16-Jan-2021 06:30:15,32.91114,-117.39134,093.3 028.0,093.3,028.0,505.000,509.208,,6.6212,,6.6154,,6.6183,34.2818,,34.2876,34.2740,,34.2760,34.2818,0.4005,,0.4191,0.4368,0.3937,,0.4161,0.4329,0.4349,17.416,18.4913,19.0889,17.123,19.8193,18.9261,19.0075,0.0323,,,, ,, , ,26.9106,,26.9052,,0.6850,84.2615,,,,3.6947E+00,,8.5867E-02,,6.5745,6.5687,0.9359,121.090,5.853,5.753,,,,,,,,,,,,
CalCOFI,2101RL,004,,2101_004u,16-Jan-2021 14:30:16,16-Jan-2021 06:30:16,32.91114,-117.39134,093.3 028.0,093.3,028.0,504.000,508.198,,6.6378,,6.6440,,6.6409,34.2817,,34.2875,34.2728,,34.2748,34.2812,0.4033,,0.4220,0.4397,0.4063,,0.4295,0.4462,0.4430,17.541,18.6221,19.2193,17.671,19.9583,19.5032,19.3613,0.0330,,,, ,, , ,26.9083,,26.9005,,0.6853,84.2544,,,,3.6947E+00,,8.5306E-02,,6.5911,6.5973,0.9359,121.312,5.897,5.941,,,,,,,,,,,,
CalCOFI,2101RL,004,,2101_004u,16-Jan-2021 14:30:17,16-Jan-2021 06:30:17,32.91114,-117.39134,093.3 028.0,093.3,028.0,503.000,507.189,,6.6575,,6.6596,,6.6586,34.2806,,34.2864,34.2724,,34.2744,34.2804,0.4068,,0.4257,0.4433,0.4109,,0.4344,0.4510,0.4472,17.694,18.7823,19.3789,17.871,20.1284,19.7138,19.5464,0.0326,,,, ,, , ,26.9048,,26.8980,,0.6853,84.2543,,,,3.6947E+00,,8.2725E-02,,6.6108,6.6129,0.9359,121.651,5.951,6.010,,,,,,,,,,,,
CalCOFI,2101RL,004,,2101_004u,16-Jan-2021 14:30:18,16-Jan-2021 06:30:18,32.91114,-117.39134,093.3 028.0,093.3,028.0,502.000,506.179,,6.6744,,6.6746,,6.6745,34.2802,,34.2860,34.2721,,34.2741,34.2801,0.4094,,0.4284,0.4460,0.4119,,0.4355,0.4521,0.4491,17.807,18.9006,19.4968,17.913,20.2541,19.7580,19.6274,0.0319,,,, ,, , ,26.9022,,26.8958,,0.6853,84.2543,,,,3.6947E+00,,8.1342E-02,,6.6278,6.6279,0.9359,121.897,5.991,6.027,,,,,,,,,,,,
CalCOFI,2101RL,004,,2101_004u,16-Jan-2021 14:30:19,16-Jan-2021 06:30:19,32.91114,-117.39134,093.3 028.0,093.3,028.0,501.000,505.170,,6.6797,,6.6904,,6.6851,34.2794,,34.2852,34.2709,,34.2729,34.2791,0.4126,,0.4317,0.4494,0.4152,,0.4390,0.4556,0.4525,17.945,19.0450,19.6407,18.056,20.4075,19.9086,19.7747,0.0318,,,, ,, , ,26.9009,,26.8928,,0.6853,84.2543,,,,3.6947E+00,,8.9363E-02,,6.6332,6.6438,0.9359,122.018,6.039,6.077,,,,,,,,,,,,
CalCOFI,2101RL,004,,2101_004u,16-Jan-2021 14:30:20,16-Jan-2021 06:30:20,32.91114,-117.39134,093.3 028.0,093.3,028.0,500.000,504.160,,6.6971,,6.7083,,6.7027,34.2783,,34.2841,34.2704,,34.2724,34.2783,0.4167,,0.4360,0.4536,0.4151,,0.4389,0.4555,0.4546,18.122,19.2303,19.8253,18.054,20.6044,19.9065,19.8659,0.0323,,,, ,, , ,26.8977,,26.8900,,0.6852,84.2575,,,,3.6947E+00,,8.6870E-02,,6.6505,6.6617,0.9359,122.320,6.100,6.079,,,,,,,,,,,,
CalCOFI,2101RL,004,,2101_004u,16-Jan-2021 14:30:21,16-Jan-2021 06:30:21,32.91114,-117.39134,093.3 028.0,093.3,028.0,499.000,503.151,,6.7185,,6.7249,,6.7217,34.2786,,34.2844,34.2701,,34.2721,34.2783,0.4203,,0.4398,0.4574,0.4186,,0.4426,0.4591,0.4583,18.280,19.3957,19.9901,18.204,20.7801,20.0644,20.0273,0.0319,,,, ,, , ,26.8950,,26.8875,,0.6850,84.2600,,,,3.6947E+00,,8.7170E-02,,6.6720,6.6783,0.9359,122.581,6.157,6.132,,,,,,,,,,,,
CalCOFI,2101RL,004,,2101_004u,16-Jan-2021 14:30:22,16-Jan-2021 06:30:22,32.91114,-117.39134,093.3 028.0,093.3,028.0,498.000,502.141,,6.7296,,6.7371,,6.7334,34.2774,,34.2832,34.2691,,34.2711,34.2772,0.4171,,0.4364,0.4541,0.4227,,0.4469,0.4634,0.4588,18.140,19.2492,19.8441,18.383,20.6244,20.2529,20.0485,0.0318,,,, ,, , ,26.8926,,26.8850,,0.6834,84.2948,,,,3.6947E+00,,8.2930E-02,,6.6831,6.6906,0.9359,122.806,6.111,6.193,,,,,,,,,,,,
CalCOFI,2101RL,004,,2101_004u,16-Jan-2021 14:30:24,16-Jan-2021 06:30:24,32.91114,-117.39134,093.3 028.0,093.3,028.0,497.000,501.132,,6.7309,,6.7420,,6.7365,34.2769,,34.2827,34.2684,,34.2704,34.2766,0.4180,,0.4374,0.4550,0.4143,,0.4380,0.4546,0.4548,18.179,19.2900,19.8847,18.019,20.6677,19.8696,19.8772,0.0318,,,, ,, , ,26.8921,,26.8839,,0.6840,84.2821,,,,3.6947E+00,,9.1897E-02,,6.6845,6.6955,0.9359,122.845,6.124,6.072,,,,,,,,,,,,
CalCOFI,2101RL,004,,2101_004u,16-Jan-2021 14:30:25,16-Jan-2021 06:30:25,32.91114,-117.39136,093.3 028.0,093.3,028.0,496.000,500.122,,6.7203,,6.7276,,6.7240,34.2777,,34.2835,34.2689,,34.2709,34.2772,0.4256,,0.4453,0.4629,0.4262,,0.4507,0.4671,0.4650,18.508,19.6344,20.2279,18.538,21.0336,20.4161,20.3220,0.0323,,,, ,, , ,26.8940,,26.8862,,0.6830,84.3037,,,,3.6947E+00,,9.6425E-02,,6.6740,6.6813,0.9359,122.630,6.233,6.244,,,,,,,,,,,,
CalCOFI,2101RL,004,,2101_004u,16-Jan-2021 14:30:26,16-Jan-2021 06:30:26,32.91114,-117.39136,093.3 028.0,093.3,028.0,495.000,499.112,,6.7481,,6.7377,,6.7429,34.2767,,34.2825,34.2688,,34.2708,34.2767,0.4280,,0.4478,0.4654,0.4293,,0.4540,0.4704,0.4679,18.613,19.7443,20.3374,18.670,21.1504,20.5551,20.4463,0.0320,,,, ,, , ,26.8895,,26.8847,,0.6829,84.3064,,,,3.6947E+00,,9.6208E-02,,6.7019,6.6915,0.9359,123.070,6.273,6.290,,,,,,,,,,,,
CalCOFI,2101RL,004,,2101_004u,16-Jan-2021 14:30:27,16-Jan-2021 06:30:27,32.91114,-117.39136,093.3 028.0,093.3,028.0,494.000,498.103,,6.7607,,6.7624,,6.7616,34.2758,,34.2816,34.2675,,34.2695,34.2756,0.4313,,0.4513,0.4689,0.4286,,0.4532,0.4697,0.4693,18.759,19.8971,20.4897,18.639,21.3127,20.5225,20.5061,0.0324,,,, ,, , ,26.8871,,26.8804,,0.6831,84.3013,,,,3.6947E+00,,9.9500E-02,,6.7145,6.7162,0.9359,123.294,6.324,6.283,,,,,,,,,,,,
CalCOFI,2101RL,004,,2101_004u,16-Jan-2021 14:30:28,16-Jan-2021 06:30:28,32.91114,-117.39136,093.3 028.0,093.3,028.0,493.000,497.093,,6.7671,,6.7703,,6.7687,34.2752,,34.2810,34.2671,,34.2691,34.2751,0.4376,,0.4579,0.4754,0.4321,,0.4569,0.4733,0.4744,19.033,20.1839,20.7755,18.793,21.6174,20.6847,20.7301,0.0317,,,, ,, , ,26.8858,,26.8790,,0.6829,84.3048,,,,3.6947E+00,,9.3464E-02,,6.7210,6.7241,0.9359,123.415,6.417,6.336,,,,,,,,,,,,
CalCOFI,2101RL,004,,2101_004u,16-Jan-2021 14:30:29,16-Jan-2021 06:30:29,32.91114,-117.39136,093.3 028.0,093.3,028.0,492.000,496.084,,6.7721,,6.7719,,6.7720,34.2749,,34.2807,34.2670,,34.2690,34.2749,0.4441,,0.4647,0.4822,0.4360,,0.4611,0.4774,0.4798,19.312,20.4760,21.0665,18.961,21.9277,20.8616,20.9641,0.0318,,,, ,, , ,26.8849,,26.8787,,0.6822,84.3213,,,,3.6947E+00,,9.8028E-02,,6.7260,6.7258,0.9359,123.487,6.512,6.393,,,,,,,,,,,,
CalCOFI,2101RL,004,,2101_004u,16-Jan-2021 14:30:30,16-Jan-2021 06:30:30,32.91114,-117.39136,093.3 028.0,093.3,028.0,491.000,495.074,,6.7883,,6.7802,,6.7843,34.2748,,34.2806,34.2674,,34.2694,34.2750,0.4443,,0.4649,0.4824,0.4428,,0.4683,0.4846,0.4835,19.323,20.4875,21.0779,19.256,21.9399,21.1722,21.1251,0.0322,,,, ,, , ,26.8826,,26.8779,,0.6827,84.3098,,,,3.6947E+00,,1.0172E-01,,6.7422,6.7342,0.9359,123.705,6.518,6.494,,,,,,,,,,,,
CalCOFI,2101RL,004,,2101_004u,16-Jan-2021 14:30:31,16-Jan-2021 06:30:31,32.91114,-117.39136,093.3 028.0,093.3,028.0,490.000,494.065,,6.8198,,6.8220,,6.8209,34.2734,,34.2792,34.2655,,34.2675,34.2734,0.4449,,0.4655,0.4830,0.4446,,0.4702,0.4865,0.4848,19.348,20.5137,21.1040,19.337,21.9677,21.2575,21.1808,0.0317,,,, ,, , ,26.8772,,26.8707,,0.6827,84.3093,,,,3.6947E+00,,9.4674E-02,,6.7737,6.7759,0.9359,124.231,6.531,6.527,,,,,,,,,,,,
CalCOFI,2101RL,004,,2101_004u,16-Jan-2021 14:30:32,16-Jan-2021 06:30:32,32.91114,-117.39136,093.3 028.0,093.3,028.0,489.000,493.055,,6.8246,,6.8245,,6.8246,34.2737,,34.2795,34.2646,,34.2666,34.2731,0.4416,,0.4621,0.4796,0.4481,,0.4739,0.4902,0.4849,19.203,20.3619,20.9528,19.487,21.8064,21.4155,21.1842,0.0321,,,, ,, , ,26.8768,,26.8696,,0.6840,84.2820,,,,3.6947E+00,,9.9069E-02,,6.7787,6.7785,0.9359,124.259,6.483,6.578,,,,,,,,,,,,
CalCOFI,2101RL,004,,2101_004u,16-Jan-2021 14:30:33,16-Jan-2021 06:30:33,32.91114,-117.39136,093.3 028.0,093.3,028.0,488.000,492.046,,6.8053,,6.8054,,6.8054,34.2731,,34.2789,34.2666,,34.2686,34.2738,0.4527,,0.4737,0.4912,0.4472,,0.4730,0.4892,0.4902,19.690,20.8717,21.4607,19.450,22.3480,21.3765,21.4186,0.0322,,,, ,, , ,26.8790,,26.8738,,0.6831,84.3021,,,,3.6947E+00,,1.0058E-01,,6.7595,6.7596,0.9359,124.022,6.644,6.563,,,,,,,,,,,,
CalCOFI,2101RL,004,,2101_004u,16-Jan-2021 14:30:35,16-Jan-2021 06:30:35,32.91114,-117.39136,093.3 028.0,093.3,028.0,487.000,491.036,,6.8292,,6.8478,,6.8385,34.2741,,34.2799,34.2646,,34.2666,34.2733,0.4589,,0.4802,0.4976,0.4546,,0.4808,0.4970,0.4973,19.957,21.1512,21.7392,19.770,22.6449,21.7135,21.7264,0.0317,,,, ,, , ,26.8765,,26.8665,,0.6828,84.3072,,,,3.6947E+00,,1.0414E-01,,6.7834,6.8020,0.9359,124.263,6.738,6.678,,,,,,,,,,,,
CalCOFI,2101RL,004,,2101_004u,16-Jan-2021 14:30:36,16-Jan-2021 06:30:36,32.91114,-117.39136,093.3 028.0,093.3,028.0,486.000,490.027,,6.8629,,6.8793,,6.8711,34.2722,,34.2780,34.2636,,34.2656,34.2718,0.4623,,0.4837,0.5012,0.4562,,0.4825,0.4987,0.5000,20.107,21.3082,21.8957,19.843,22.8117,21.7903,21.8430,0.0326,,,, ,, , ,26.8704,,26.8614,,0.6831,84.3014,,,,3.6947E+00,,1.0496E-01,,6.8171,6.8334,0.9359,124.861,6.794,6.707,,,,,,,,,,,,
CalCOFI,2101RL,004,,2101_004u,16-Jan-2021 14:30:37,16-Jan-2021 06:30:37,32.91114,-117.39136,093.3 028.0,093.3,028.0,485.000,489.017,,6.8792,,6.8861,,6.8827,34.2718,,34.2776,34.2636,,34.2656,34.2716,0.4644,,0.4859,0.5034,0.4675,,0.4945,0.5106,0.5070,20.197,21.4024,21.9895,20.332,22.9118,22.3053,22.1474,0.0323,,,, ,, , ,26.8679,,26.8605,,0.6831,84.3014,,,,3.6947E+00,,1.0366E-01,,6.8334,6.8403,0.9359,125.103,6.827,6.873,,,,,,,,,,,,
CalCOFI,2101RL,004,,2101_004u,16-Jan-2021 14:30:37,16-Jan-2021 06:30:37,32.91114,-117.39135,093.3 028.0,093.3,028.0,484.000,488.008,,6.8946,,6.8945,,6.8946,34.2714,,34.2772,34.2634,,34.2654,34.2713,0.4644,,0.4859,0.5034,0.4750,,0.5025,0.5185,0.5110,20.198,21.4035,21.9906,20.660,22.9129,22.6507,22.3207,0.0326,,,, ,, , ,26.8655,,26.8592,,0.6831,84.3014,,,,3.6947E+00,,1.0848E-01,,6.8489,6.8488,0.9359,125.331,6.830,6.985,,,,,,,,,,,,
CalCOFI,2101RL,004,,2101_004u,16-Jan-2021 14:30:38,16-Jan-2021 06:30:38,32.91114,-117.39134,093.3 028.0,093.3,028.0,483.000,486.999,,6.8991,,6.9007,,6.8999,34.2712,,34.2770,34.2629,,34.2649,34.2710,0.4691,,0.4909,0.5083,0.4661,,0.4930,0.5091,0.5087,20.401,21.6160,22.2023,20.273,23.1386,22.2431,22.2227,0.0324,,,, ,, , ,26.8647,,26.8579,,0.6831,84.3014,,,,3.6947E+00,,1.0573E-01,,6.8535,6.8550,0.9359,125.390,6.899,6.856,,,,,,,,,,,,
CalCOFI,2101RL,004,,2101_004u,16-Jan-2021 14:30:39,16-Jan-2021 06:30:39,32.91114,-117.39134,093.3 028.0,093.3,028.0,482.000,485.989,,6.9051,,6.9058,,6.9055,34.2710,,34.2768,34.2629,,34.2649,34.2709,0.4701,,0.4919,0.5093,0.4618,,0.4885,0.5046,0.5070,20.446,21.6631,22.2492,20.085,23.1887,22.0452,22.1472,0.0320,,,, ,, , ,26.8638,,26.8572,,0.6831,84.3014,,,,3.6947E+00,,1.0860E-01,,6.8595,6.8603,0.9359,125.473,6.915,6.793,,,,,,,,,,,,
CalCOFI,2101RL,004,,2101_004u,16-Jan-2021 14:30:40,16-Jan-2021 06:30:40,32.91114,-117.39134,093.3 028.0,093.3,028.0,481.000,484.980,,6.9159,,6.9189,,6.9174,34.2705,,34.2763,34.2625,,34.2645,34.2704,0.4712,,0.4931,0.5104,0.4674,,0.4944,0.5105,0.5105,20.491,21.7102,22.2962,20.330,23.2387,22.3032,22.2997,0.0317,,,, ,, , ,26.8619,,26.8552,,0.6833,84.2981,,,,3.6947E+00,,1.0719E-01,,6.8704,6.8734,0.9359,125.643,6.932,6.878,,,,,,,,,,,,
CalCOFI,2101RL,004,,2101_004u,16-Jan-2021 14:30:41,16-Jan-2021 06:30:41,32.91113,-117.39134,093.3 028.0,093.3,028.0,480.000,483.970,,6.9295,,6.9330,,6.9313,34.2700,,34.2758,34.2625,,34.2645,34.2702,0.4726,,0.4945,0.5119,0.4724,,0.4997,0.5157,0.5138,20.556,21.7782,22.3640,20.547,23.3110,22.5317,22.4479,0.0323,,,, ,, , ,26.8596,,26.8532,,0.6878,84.2013,,,,3.6947E+00,,1.0811E-01,,6.8840,6.8875,0.9359,125.855,6.956,6.953,,,,,,,,,,,,
CalCOFI,2101RL,004,,2101_004u,16-Jan-2021 14:30:42,16-Jan-2021 06:30:42,32.91112,-117.39134,093.3 028.0,093.3,028.0,479.000,482.961,,6.9320,,6.9404,,6.9362,34.2706,,34.2764,34.2620,,34.2640,34.2702,0.4757,,0.4978,0.5151,0.4784,,0.5061,0.5221,0.5186,20.689,21.9174,22.5027,20.805,23.4589,22.8034,22.6531,0.0321,,,, ,, , ,26.8597,,26.8518,,0.6827,84.3099,,,,3.6947E+00,,1.0254E-01,,6.8866,6.8950,0.9359,125.834,7.001,7.042,,,,,,,,,,,,
CalCOFI,2101RL,004,,2101_004u,16-Jan-2021 14:30:43,16-Jan-2021 06:30:43,32.91112,-117.39134,093.3 028.0,093.3,028.0,478.000,481.951,,6.9406,,6.9454,,6.9430,34.2701,,34.2759,34.2622,,34.2642,34.2701,0.4756,,0.4977,0.5150,0.4744,,0.5019,0.5179,0.5165,20.685,21.9133,22.4985,20.633,23.4545,22.6222,22.5604,0.0319,,,, ,, , ,26.8582,,26.8512,,0.6831,84.3014,,,,3.6947E+00,,1.0247E-01,,6.8953,6.9001,0.9359,125.973,7.002,6.984,,,,,,,,,,,,
CalCOFI,2101RL,004,,2101_004u,16-Jan-2021 14:30:44,16-Jan-2021 06:30:44,32.91112,-117.39134,093.3 028.0,093.3,028.0,477.000,480.942,,6.9447,,6.9542,,6.9495,34.2703,,34.2761,34.2619,,34.2639,34.2700,0.4778,,0.5000,0.5173,0.4832,,0.5112,0.5271,0.5222,20.781,22.0138,22.5986,21.014,23.5612,23.0234,22.8110,0.0324,,,, ,, , ,26.8577,,26.8498,,0.6831,84.3014,,,,3.6947E+00,,1.0407E-01,,6.8995,6.9089,0.9359,126.002,7.035,7.115,,,,,,,,,,,,
CalCOFI,2101RL,004,,2101_004u,16-Jan-2021 14:30:45,16-Jan-2021 06:30:45,32.91112,-117.39134,093.3 028.0,093.3,028.0,476.000,479.932,,6.9526,,6.9601,,6.9564,34.2696,,34.2754,34.2616,,34.2636,34.2695,0.4783,,0.5005,0.5178,0.4750,,0.5025,0.5185,0.5182,20.800,22.0336,22.6184,20.659,23.5823,22.6496,22.6340,0.0318,,,, ,, , ,26.8561,,26.8488,,0.6821,84.3239,,,,3.6947E+00,,1.0776E-01,,6.9075,6.9149,0.9359,126.149,7.042,6.995,,,,,,,,,,,,
CalCOFI,2101RL,004,,2101_004u,16-Jan-2021 14:30:46,16-Jan-2021 06:30:46,32.91112,-117.39134,093.3 028.0,093.3,028.0,475.000,478.923,,6.9615,,6.9654,,6.9635,34.2698,,34.2756,34.2615,,34.2635,34.2696,0.4812,,0.5035,0.5209,0.4755,,0.5030,0.5190,0.5200,20.929,22.1687,22.7530,20.682,23.7258,22.6738,22.7134,0.0324,,,, ,, , ,26.8550,,26.8480,,0.6824,84.3168,,,,3.6947E+00,,1.1095E-01,,6.9164,6.9203,0.9359,126.245,7.088,7.004,,,,,,,,,,,,
CalCOFI,2101RL,004,,2101_004u,16-Jan-2021 14:30:47,16-Jan-2021 06:30:47,32.91112,-117.39134,093.3 028.0,093.3,028.0,474.000,477.914,,6.9678,,6.9705,,6.9692,34.2693,,34.2751,34.2612,,34.2632,34.2692,0.4774,,0.4995,0.5169,0.4840,,0.5121,0.5280,0.5225,20.763,21.9949,22.5799,21.049,23.5412,23.0603,22.8201,0.0328,,,, ,, , ,26.8538,,26.8470,,0.6820,84.3251,,,,3.6947E+00,,1.0607E-01,,6.9228,6.9255,0.9359,126.354,7.032,7.129,,,,,,,,,,,,
CalCOFI,2101RL,004,,2101_004u,16-Jan-2021 14:30:48,16-Jan-2021 06:30:48,32.91112,-117.39134,093.3 028.0,093.3,028.0,473.000,476.904,,6.9712,,6.9729,,6.9721,34.2693,,34.2751,34.2612,,34.2632,34.2692,0.4782,,0.5004,0.5177,0.4821,,0.5100,0.5260,0.5219,20.798,22.0315,22.6164,20.968,23.5801,22.9750,22.7957,0.0317,,,, ,, , ,26.8533,,26.8467,,0.6820,84.3250,,,,3.6947E+00,,1.1352E-01,,6.9262,6.9280,0.9359,126.390,7.045,7.102,,,,,,,,,,,,
CalCOFI,2101RL,004,,2101_004u,16-Jan-2021 14:30:49,16-Jan-2021 06:30:49,32.91112,-117.39134,093.3 028.0,093.3,028.0,472.000,475.895,,6.9738,,6.9758,,6.9748,34.2693,,34.2751,34.2610,,34.2630,34.2691,0.4823,,0.5047,0.5220,0.4806,,0.5084,0.5244,0.5232,20.978,22.2200,22.8041,20.905,23.7803,22.9087,22.8564,0.0316,,,, ,, , ,26.8529,,26.8461,,0.6820,84.3250,,,,3.6947E+00,,1.0997E-01,,6.9289,6.9310,0.9359,126.413,7.106,7.081,,,,,,,,,,,,
CalCOFI,2101RL,004,,2101_004u,16-Jan-2021 14:30:50,16-Jan-2021 06:30:50,32.91112,-117.39134,093.3 028.0,093.3,028.0,471.000,474.885,,6.9763,,6.9766,,6.9765,34.2690,,34.2748,34.2608,,34.2628,34.2688,0.4841,,0.5066,0.5239,0.4812,,0.5091,0.5250,0.5245,21.055,22.3006,22.8844,20.928,23.8659,22.9329,22.9087,0.0310,,,, ,, , ,26.8523,,26.8458,,0.6824,84.3154,,,,3.6947E+00,,1.1505E-01,,6.9315,6.9319,0.9359,126.453,7.133,7.089,,,,,,,,,,,,
CalCOFI,2101RL,004,,2101_004u,16-Jan-2021 14:30:51,16-Jan-2021 06:30:51,32.91112,-117.39130,093.3 028.0,093.3,028.0,470.000,473.876,,6.9767,,6.9792,,6.9780,34.2690,,34.2748,34.2608,,34.2628,34.2688,0.4805,,0.5028,0.5201,0.4786,,0.5063,0.5223,0.5212,20.899,22.1373,22.7217,20.813,23.6924,22.8118,22.7668,0.0319,,,, ,, , ,26.8523,,26.8455,,0.6831,84.3016,,,,3.6947E+00,,1.0852E-01,,6.9321,6.9346,0.9359,126.441,7.080,7.051,,,,,,,,,,,,
CalCOFI,2101RL,004,,2101_004u,16-Jan-2021 14:30:52,16-Jan-2021 06:30:52,32.91112,-117.39130,093.3 028.0,093.3,028.0,469.000,472.867,,6.9773,,6.9797,,6.9785,34.2688,,34.2746,34.2609,,34.2629,34.2688,0.4827,,0.5051,0.5224,0.4893,,0.5177,0.5335,0.5280,20.994,22.2367,22.8208,21.280,23.7981,23.3036,23.0622,0.0326,,,, ,, , ,26.8520,,26.8454,,0.6825,84.3146,,,,3.6947E+00,,1.1472E-01,,6.9327,6.9352,0.9359,126.449,7.112,7.209,,,,,,,,,,,,
CalCOFI,2101RL,004,,2101_004u,16-Jan-2021 14:30:53,16-Jan-2021 06:30:53,32.91112,-117.39130,093.3 028.0,093.3,028.0,468.000,471.857,,6.9794,,6.9806,,6.9800,34.2686,,34.2744,34.2606,,34.2626,34.2685,0.4874,,0.5100,0.5273,0.4870,,0.5152,0.5311,0.5292,21.200,22.4524,23.0356,21.179,24.0271,23.1972,23.1164,0.0322,,,, ,, , ,26.8516,,26.8451,,0.6823,84.3178,,,,3.6947E+00,,1.1965E-01,,6.9349,6.9361,0.9359,126.480,7.182,7.175,,,,,,,,,,,,
CalCOFI,2101RL,004,,2101_004u,16-Jan-2021 14:30:54,16-Jan-2021 06:30:54,32.91112,-117.39129,093.3 028.0,093.3,028.0,467.000,470.848,,6.9805,,6.9813,,6.9809,34.2684,,34.2742,34.2603,,34.2623,34.2683,0.4866,,0.5092,0.5265,0.4830,,0.5110,0.5269,0.5267,21.163,22.4136,22.9971,21.006,23.9860,23.0150,23.0061,0.0311,,,, ,, , ,26.8512,,26.8447,,0.6820,84.3250,,,,3.6947E+00,,1.1117E-01,,6.9361,6.9370,0.9359,126.497,7.170,7.116,,,,,,,,,,,,